This demonstration page uses our WeatherBlox Daily Observations layout. Learn more.

Left ArrowRight Arrow

39.08367, -84.50855

Hourly Observations for September 24, 2022

Temp ( °F °C ) Dew Point ( °F °C ) Humidity (%) Winds ( mph kmh ) Pressure ( in mb ) Visibility ( mi km ) Precip ( " mm )
12:53 am 00:53 Cloudy 56 13.3 54 12.2 93 93 ESE 3 6 30.11 1020 10 16 0.01 0.25
1:53 am 01:53 Cloudy 56 13.3 54 12.2 93 93 Calm 30.11 1020 10 16 0.00 0.00
2:53 am 02:53 Cloudy 58 14.4 52 11.1 81 81 Calm 30.10 1019 10 16 0.00 0.00
3:53 am 03:53 Cloudy 57 13.9 54 12.2 89 89 Calm 30.11 1020 10 16 0.00 0.00
4:53 am 04:53 Cloudy with Light Rain 56 13.3 54 12.2 93 93 Calm 30.13 1020 8 13 0.01 0.13
5:53 am 05:53 Cloudy 56 13.3 55 12.8 97 97 NNE 3 6 30.11 1020 10 16 0.05 1.27
6:53 am 06:53 Cloudy with Light Rain 56 13.3 54 12.2 93 93 NE 5 7 30.11 1020 6 10 0.01 0.25
7:53 am 07:53 Cloudy with Light Rain 56 13.3 54 12.2 93 93 NE 3 6 30.10 1019 7 11 0.01 0.25
8:53 am 08:53 Cloudy 57 13.9 54 12.2 89 89 Calm 30.09 1019 10 16 0.01 0.13
9:53 am 09:53 Cloudy 57 13.9 54 12.2 89 89 SSW 3 6 30.08 1019 10 16 0.00 0.00
10:53 am 10:53 Cloudy 59 15 54 12.2 83 83 S 8 13 30.06 1018 10 16 0.00 0.00
11:53 am 11:53 Cloudy 62 16.7 53 11.7 72 72 S 9 15 30.03 1017 10 16 0.00 0.00
12:53 pm 12:53 Cloudy 65 18.3 55 12.8 70 70 S 6 9 30.00 1016 10 16 0.00 0.00
1:53 pm 13:53 Mostly Cloudy 69 20.6 57 13.9 65 65 S 10 17 29.96 1015 10 16 0.00 0.00
2:53 pm 14:53 Mostly Sunny 72 22.2 57 13.9 59 59 S 12 19 29.92 1013 10 16 0.00 0.00
3:53 pm 15:53 Mostly Cloudy 74 23.3 57 13.9 56 56 SSW 9 15 29.89 1012 10 16 0.00 0.00
4:53 pm 16:53 Mostly Sunny 75 23.9 56 13.3 51 51 SSW 15 24 29.87 1012 10 16 0.00 0.00
5:53 pm 17:53 Partly Cloudy 75 23.9 57 13.9 54 54 WSW 14 22 29.87 1012 10 16 0.00 0.00
6:53 pm 18:53 Sunny 72 22.2 57 13.9 59 59 SSW 6 9 29.86 1011 10 16 0.00 0.00
7:53 pm 19:53 Clear 64 17.8 58 14.4 80 80 S 5 7 29.86 1011 10 16 0.00 0.00
8:53 pm 20:53 Clear 63 17.2 58 14.4 84 84 S 7 11 29.87 1012 10 16 0.00 0.00
9:53 pm 21:53 Clear 64 17.8 58 14.4 80 80 SSW 5 7 29.88 1012 10 16 0.00 0.00
10:53 pm 22:53 Clear 60 15.6 58 14.4 93 93 Calm 29.87 1011 10 16 0.00 0.00
11:53 pm 23:53 Clear 60 15.6 58 14.4 93 93 Calm 29.86 1011 10 16 0.00 0.00

Powered by AerisWeather